| time (UTC) | temp F | wind direction | speed knots | gust knots | rain 1hr in | rain 24hr in | rain mn in | humidity % | barometer mb |
| 20260504045903 | 62 | 168 | 0.0 | 0.0 | 0.00 | 0.00 | 0.00 | 67 | 1018.3 |
| 20260504045405 | 63 | 168 | 0.0 | 0.0 | 0.00 | 0.00 | 0.00 | 67 | 1018.5 |
| 20260504044904 | 63 | 168 | 0.0 | 0.0 | 0.00 | 0.00 | 0.00 | 66 | 1018.5 |
| 20260504044404 | 63 | 168 | 0.0 | 0.0 | 0.00 | 0.00 | 0.00 | 66 | 1018.5 |
| 20260504043904 | 63 | 168 | 0.0 | 0.0 | 0.00 | 0.00 | 0.00 | 65 | 1018.6 |
| 20260504042404 | 64 | 168 | 0.0 | 0.0 | 0.00 | 0.00 | 0.00 | 64 | 1018.6 |
| 20260504041904 | 64 | 168 | 0.0 | 0.0 | 0.00 | 0.00 | 0.00 | 64 | 1018.5 |
| 20260504041404 | 64 | 168 | 0.0 | 0.0 | 0.00 | 0.00 | 0.00 | 64 | 1018.4 |
| 20260504040904 | 64 | 168 | 0.0 | 0.0 | 0.00 | 0.00 | 0.00 | 63 | 1018.4 |
| 20260504040403 | 64 | 168 | 0.0 | 0.0 | 0.00 | 0.00 | 0.00 | 63 | 1018.4 |
| 20260504035904 | 65 | 168 | 0.0 | 0.0 | 0.00 | 0.00 | 0.00 | 62 | 1018.4 |
| 20260504034904 | 65 | 168 | 0.0 | 0.0 | 0.00 | 0.00 | 0.00 | 62 | 1018.5 |
| 20260504034403 | 65 | 168 | 0.0 | 0.0 | 0.00 | 0.00 | 0.00 | 61 | 1018.7 |
| 20260504033405 | 66 | 168 | 0.0 | 2.6 | 0.00 | 0.00 | 0.00 | 60 | 1018.5 |
| 20260504032905 | 66 | 168 | 0.0 | 2.6 | 0.00 | 0.00 | 0.00 | 60 | 1018.5 |
| 20260504032404 | 66 | 168 | 0.0 | 1.7 | 0.00 | 0.00 | 0.00 | 60 | 1018.5 |
| 20260504031404 | 66 | 168 | 0.0 | 1.7 | 0.00 | 0.00 | 0.00 | 58 | 1018.3 |
| 20260504030904 | 67 | 168 | 0.0 | 1.7 | 0.00 | 0.00 | 0.00 | 58 | 1018.3 |
| 20260504030403 | 67 | 168 | 0.9 | 1.7 | 0.00 | 0.00 | 0.00 | 57 | 1018.4 |
| 20260504025404 | 67 | 168 | 0.0 | 2.6 | 0.00 | 0.00 | 0.00 | 57 | 1018.4 |
| 20260504024904 | 67 | 168 | 0.0 | 2.6 | 0.00 | 0.00 | 0.00 | 57 | 1018.5 |
| 20260504024404 | 68 | 168 | 0.9 | 1.7 | 0.00 | 0.00 | 0.00 | 56 | 1018.5 |
| 20260504023905 | 68 | 167 | 0.9 | 2.6 | 0.00 | 0.00 | 0.00 | 56 | 1018.5 |
| 20260504023404 | 68 | 167 | 0.9 | 2.6 | 0.00 | 0.00 | 0.00 | 55 | 1018.4 |
| 20260504022904 | 68 | 167 | 0.9 | 2.6 | 0.00 | 0.00 | 0.00 | 55 | 1018.4 |
| 20260504022404 | 68 | 167 | 0.9 | 2.6 | 0.00 | 0.00 | 0.00 | 55 | 1018.3 |
| 20260504021904 | 69 | 189 | 0.0 | 0.0 | 0.00 | 0.00 | 0.00 | 54 | 1018.3 |
| 20260504021404 | 69 | 189 | 0.0 | 0.0 | 0.00 | 0.00 | 0.00 | 53 | 1018.4 |
| 20260504020904 | 69 | 189 | 0.0 | 0.0 | 0.00 | 0.00 | 0.00 | 53 | 1018.3 |
| 20260504020403 | 69 | 189 | 0.0 | 2.6 | 0.00 | 0.00 | 0.00 | 53 | 1018.3 |
| 20260504015904 | 69 | 190 | 0.0 | 4.3 | 0.00 | 0.00 | 0.00 | 53 | 1018.3 |
| 20260504015404 | 69 | 190 | 0.9 | 4.3 | 0.00 | 0.00 | 0.00 | 52 | 1018.3 |
| 20260504014904 | 70 | 162 | 1.7 | 7.0 | 0.00 | 0.00 | 0.00 | 52 | 1018.3 |
| 20260504014404 | 70 | 166 | 1.7 | 7.0 | 0.00 | 0.00 | 0.00 | 52 | 1018.3 |
| 20260504012404 | 71 | 159 | 1.7 | 6.1 | 0.00 | 0.00 | 0.00 | 50 | 1018.3 |
| 20260504011904 | 71 | 183 | 1.7 | 5.2 | 0.00 | 0.00 | 0.00 | 49 | 1018.2 |
| 20260504010904 | 72 | 165 | 1.7 | 5.2 | 0.00 | 0.00 | 0.00 | 48 | 1018.2 |
| 20260504010404 | 72 | 185 | 0.9 | 4.3 | 0.00 | 0.00 | 0.00 | 47 | 1018.2 |
| 20260504005903 | 72 | 167 | 1.7 | 5.2 | 0.00 | 0.00 | 0.00 | 47 | 1018.2 |
| 20260504005404 | 72 | 194 | 2.6 | 6.1 | 0.00 | 0.00 | 0.00 | 47 | 1018.2 |
| 20260504004904 | 73 | 164 | 1.7 | 6.1 | 0.00 | 0.00 | 0.00 | 46 | 1018.1 |
| 20260504004404 | 73 | 156 | 1.7 | 7.8 | 0.00 | 0.00 | 0.00 | 45 | 1018.1 |
| 20260504003903 | 73 | 185 | 2.6 | 7.8 | 0.00 | 0.00 | 0.00 | 45 | 1018.2 |
| 20260504002904 | 74 | 164 | 2.6 | 7.8 | 0.00 | 0.00 | 0.00 | 43 | 1018.1 |
| 20260504002404 | 74 | 188 | 2.6 | 10.4 | 0.00 | 0.00 | 0.00 | 43 | 1018.0 |
| 20260504001404 | 75 | 175 | 1.7 | 10.4 | 0.00 | 0.00 | 0.00 | 41 | 1018.1 |
| 20260504000905 | 75 | 140 | 4.3 | 8.7 | 0.00 | 0.00 | 0.00 | 41 | 1018.2 |
| 20260504000403 | 76 | 147 | 0.9 | 7.8 | 0.00 | 0.00 | 0.00 | 40 | 1018.2 |
| 20260503235904 | 76 | 183 | 2.6 | 7.8 | 0.00 | 0.00 | 0.00 | 40 | 1018.1 |
| 20260503235404 | 77 | 161 | 4.3 | 7.0 | 0.00 | 0.00 | 0.00 | 38 | 1018.2 |
| 20260503234904 | 78 | 146 | 4.3 | 7.8 | 0.00 | 0.00 | 0.00 | 38 | 1018.3 |
| 20260503234404 | 78 | 173 | 4.3 | 7.8 | 0.00 | 0.00 | 0.00 | 37 | 1018.3 |
| 20260503233905 | 79 | 160 | 1.7 | 7.0 | 0.00 | 0.00 | 0.00 | 38 | 1018.3 |
| 20260503232403 | 80 | 172 | 2.6 | 7.8 | 0.00 | 0.00 | 0.00 | 36 | 1018.4 |
| 20260503231904 | 80 | 180 | 2.6 | 7.8 | 0.00 | 0.00 | 0.00 | 37 | 1018.4 |
| 20260503230904 | 80 | 174 | 1.7 | 8.7 | 0.00 | 0.00 | 0.00 | 37 | 1018.5 |
| 20260503230404 | 80 | 163 | 2.6 | 8.7 | 0.00 | 0.00 | 0.00 | 36 | 1018.6 |
| 20260503225905 | 80 | 160 | 1.7 | 7.0 | 0.00 | 0.00 | 0.00 | 36 | 1018.5 |
| 20260503225405 | 80 | 161 | 2.6 | 10.4 | 0.00 | 0.00 | 0.00 | 35 | 1018.6 |
| 20260503224403 | 81 | 142 | 2.6 | 7.8 | 0.00 | 0.00 | 0.00 | 36 | 1018.6 |
| 20260503223904 | 81 | 127 | 1.7 | 7.0 | 0.00 | 0.00 | 0.00 | 35 | 1018.7 |
| 20260503223404 | 82 | 142 | 2.6 | 7.8 | 0.00 | 0.00 | 0.00 | 33 | 1018.9 |
| 20260503222404 | 83 | 146 | 2.6 | 10.4 | 0.00 | 0.00 | 0.00 | 33 | 1018.9 |
| 20260503221904 | 83 | 139 | 2.6 | 10.4 | 0.00 | 0.00 | 0.00 | 34 | 1018.8 |
| 20260503220904 | 83 | 119 | 1.7 | 7.8 | 0.00 | 0.00 | 0.00 | 31 | 1018.9 |
| 20260503220404 | 83 | 156 | 3.5 | 7.8 | 0.00 | 0.00 | 0.00 | 32 | 1018.9 |
| 20260503215905 | 84 | 129 | 1.7 | 7.8 | 0.00 | 0.00 | 0.00 | 33 | 1018.9 |
| 20260503215404 | 84 | 174 | 1.7 | 7.0 | 0.00 | 0.00 | 0.00 | 32 | 1019.0 |
| 20260503214404 | 85 | 156 | 2.6 | 7.0 | 0.00 | 0.00 | 0.00 | 30 | 1019.2 |
| 20260503213904 | 84 | 184 | 1.7 | 10.4 | 0.00 | 0.00 | 0.00 | 36 | 1019.3 |
| 20260503212904 | 84 | 146 | 4.3 | 8.7 | 0.00 | 0.00 | 0.00 | 29 | 1019.4 |
| 20260503212404 | 84 | 132 | 2.6 | 8.7 | 0.00 | 0.00 | 0.00 | 32 | 1019.5 |
| 20260503211405 | 83 | 70 | 2.6 | 10.4 | 0.00 | 0.00 | 0.00 | 32 | 1019.5 |
| 20260503210904 | 84 | 103 | 0.9 | 10.4 | 0.00 | 0.00 | 0.00 | 27 | 1019.6 |
| 20260503210403 | 85 | 148 | 4.3 | 10.4 | 0.00 | 0.00 | 0.00 | 30 | 1019.7 |
| 20260503205904 | 84 | 180 | 2.6 | 10.4 | 0.00 | 0.00 | 0.00 | 30 | 1019.8 |
| 20260503205404 | 84 | 122 | 1.7 | 8.7 | 0.00 | 0.00 | 0.00 | 30 | 1019.8 |
| 20260503204904 | 84 | 165 | 3.5 | 10.4 | 0.00 | 0.00 | 0.00 | 30 | 1019.8 |
| 20260503203904 | 83 | 146 | 5.2 | 10.4 | 0.00 | 0.00 | 0.00 | 31 | 1020.0 |
| 20260503203404 | 83 | 89 | 2.6 | 7.8 | 0.00 | 0.00 | 0.00 | 33 | 1020.2 |
| 20260503202905 | 83 | 134 | 1.7 | 7.8 | 0.00 | 0.00 | 0.00 | 33 | 1020.2 |
| 20260503202404 | 84 | 120 | 2.6 | 7.8 | 0.00 | 0.00 | 0.00 | 30 | 1020.3 |
| 20260503201904 | 84 | 155 | 1.7 | 7.8 | 0.00 | 0.00 | 0.00 | 30 | 1020.4 |
| 20260503200904 | 84 | 138 | 2.6 | 8.7 | 0.00 | 0.00 | 0.00 | 29 | 1020.6 |
| 20260503200405 | 84 | 77 | 2.6 | 7.8 | 0.00 | 0.00 | 0.00 | 31 | 1020.7 |
| 20260503195904 | 84 | 146 | 2.6 | 8.7 | 0.00 | 0.00 | 0.00 | 33 | 1020.7 |
| 20260503195404 | 84 | 149 | 4.3 | 8.7 | 0.00 | 0.00 | 0.00 | 31 | 1020.7 |
| 20260503194904 | 84 | 92 | 2.6 | 7.0 | 0.00 | 0.00 | 0.00 | 32 | 1020.7 |
| 20260503193904 | 84 | 88 | 1.7 | 7.8 | 0.00 | 0.00 | 0.00 | 33 | 1020.9 |
| 20260503192904 | 83 | 61 | 1.7 | 7.8 | 0.00 | 0.00 | 0.00 | 33 | 1021.2 |
| 20260503192404 | 83 | 106 | 2.6 | 7.0 | 0.00 | 0.00 | 0.00 | 34 | 1021.3 |
| 20260503191904 | 83 | 154 | 2.6 | 7.8 | 0.00 | 0.00 | 0.00 | 31 | 1021.3 |
| 20260503191404 | 83 | 113 | 2.6 | 7.8 | 0.00 | 0.00 | 0.00 | 35 | 1021.3 |
| 20260503190904 | 83 | 129 | 2.6 | 7.8 | 0.00 | 0.00 | 0.00 | 31 | 1021.4 |
| 20260503190405 | 83 | 144 | 2.6 | 7.0 | 0.00 | 0.00 | 0.00 | 31 | 1021.5 |
| 20260503185904 | 83 | 117 | 0.9 | 7.8 | 0.00 | 0.00 | 0.00 | 33 | 1021.6 |
| 20260503184905 | 83 | 97 | 4.3 | 8.7 | 0.00 | 0.00 | 0.00 | 32 | 1021.7 |
| 20260503184403 | 83 | 168 | 0.9 | 7.8 | 0.00 | 0.00 | 0.00 | 30 | 1021.6 |
| 20260503183904 | 83 | 84 | 3.5 | 7.8 | 0.00 | 0.00 | 0.00 | 30 | 1021.8 |
| 20260503183404 | 83 | 144 | 2.6 | 8.7 | 0.00 | 0.00 | 0.00 | 30 | 1021.8 |
| 20260503182403 | 83 | 158 | 3.5 | 7.8 | 0.00 | 0.00 | 0.00 | 29 | 1021.9 |
| 20260503181905 | 83 | 148 | 3.5 | 7.8 | 0.00 | 0.00 | 0.00 | 33 | 1022.0 |
| 20260503181404 | 83 | 168 | 1.7 | 6.1 | 0.00 | 0.00 | 0.00 | 31 | 1022.0 |
| 20260503180903 | 83 | 75 | 0.9 | 6.1 | 0.00 | 0.00 | 0.00 | 32 | 1022.1 |
| 20260503180403 | 83 | 131 | 1.7 | 6.1 | 0.00 | 0.00 | 0.00 | 32 | 1022.2 |
| 20260503175904 | 83 | 46 | 0.9 | 7.0 | 0.00 | 0.00 | 0.00 | 34 | 1022.3 |
| 20260503175404 | 82 | 100 | 2.6 | 7.0 | 0.00 | 0.00 | 0.00 | 31 | 1022.4 |
| 20260503174904 | 82 | 156 | 2.6 | 8.7 | 0.00 | 0.00 | 0.00 | 34 | 1022.4 |
| 20260503174405 | 82 | 115 | 2.6 | 8.7 | 0.00 | 0.00 | 0.00 | 30 | 1022.6 |
| 20260503173904 | 81 | 173 | 4.3 | 10.4 | 0.00 | 0.00 | 0.00 | 32 | 1022.7 |
| 20260503173403 | 81 | 166 | 4.3 | 10.4 | 0.00 | 0.00 | 0.00 | 32 | 1022.7 |
| 20260503172905 | 82 | 147 | 1.7 | 8.7 | 0.00 | 0.00 | 0.00 | 30 | 1022.8 |
| 20260503171904 | 82 | 164 | 5.2 | 8.7 | 0.00 | 0.00 | 0.00 | 33 | 1022.9 |
| 20260503170905 | 82 | 121 | 1.7 | 10.4 | 0.00 | 0.00 | 0.00 | 33 | 1022.9 |
| 20260503170404 | 82 | 135 | 4.3 | 10.4 | 0.00 | 0.00 | 0.00 | 33 | 1022.9 |
| 20260503150405 | 78 | 140 | 2.6 | 7.0 | 0.00 | 0.00 | 0.00 | 39 | 1022.7 |
| 20260503131405 | 60 | 239 | 0.0 | 0.0 | 0.00 | 0.00 | 0.00 | 90 | 1022.1 |
| 20260503130904 | 59 | 226 | 0.0 | 0.9 | 0.00 | 0.00 | 0.00 | 90 | 1022.1 |
| 20260503110404 | 54 | 23 | 0.0 | 0.0 | 0.00 | 0.01 | 0.00 | 85 | 1021.2 |
| 20260503090403 | 56 | 23 | 0.0 | 0.0 | 0.00 | 0.13 | 0.00 | 83 | 1020.6 |
| 20260503080404 | 56 | 23 | 0.0 | 0.0 | 0.00 | 0.50 | 0.00 | 82 | 1020.7 |
| 20260503072904 | 57 | 23 | 0.0 | 0.0 | 0.00 | 0.88 | 0.00 | 80 | 1020.6 |
| 20260503071904 | 57 | 23 | 0.0 | 0.0 | 0.00 | 0.94 | 0.00 | 80 | 1020.6 |
| 20260503071404 | 57 | 23 | 0.0 | 0.0 | 0.00 | 1.02 | 0.00 | 79 | 1020.7 |
| 20260503070904 | 58 | 23 | 0.0 | 0.0 | 0.00 | 1.17 | 0.00 | 79 | 1020.6 |
| 20260503070405 | 58 | 23 | 0.0 | 0.0 | 0.00 | 1.32 | 0.00 | 79 | 1020.6 |